Time,TemperatureF,DewpointF,PressureIn,WindDirection,WindDirectionDegrees,WindSpeedMPH,WindSpeedGustMPH,Humidity,HourlyPrecipIn,Conditions,Clouds,dailyrainin,SoftwareType,DateUTC
2013-08-26 00:00:00,63.7,60.1,30.22,NW,312,0.0,0.0,88,0.00,,---,0.00,VWS V14.01,2013-08-26 04:00:00,
2013-08-26 00:01:00,63.7,60.1,30.22,NW,312,0.0,0.0,88,0.00,,---,0.00,VWS V14.01,2013-08-26 04:01:00,
2013-08-26 00:06:00,63.7,60.1,30.22,NW,311,0.0,0.0,88,0.00,,---,0.00,VWS V14.01,2013-08-26 04:06:00,
2013-08-26 00:11:00,63.7,60.1,30.22,NW,312,0.0,0.0,88,0.00,,---,0.00,VWS V14.01,2013-08-26 04:11:00,
2013-08-26 00:16:00,64.1,59.8,30.22,NW,311,0.0,1.0,86,0.00,,---,0.00,VWS V14.01,2013-08-26 04:16:00,
2013-08-26 00:21:00,64.7,59.8,30.22,NW,312,0.0,1.0,84,0.00,,---,0.00,VWS V14.01,2013-08-26 04:21:00,
2013-08-26 00:26:00,65.2,59.9,30.22,WNW,287,0.0,1.0,83,0.00,,---,0.00,VWS V14.01,2013-08-26 04:26:00,
2013-08-26 00:30:00,63.5,59.6,30.23,NW,311,0.0,2.0,87,0.00,,---,0.00,VWS V14.01,2013-08-26 04:30:00,
2013-08-26 00:31:00,64.9,59.6,30.22,WNW,287,0.0,0.0,83,0.00,,---,0.00,VWS V14.01,2013-08-26 04:31:00,
2013-08-26 00:36:00,64.6,60.0,30.22,WNW,288,0.0,0.0,85,0.00,,---,0.00,VWS V14.01,2013-08-26 04:36:00,
2013-08-26 00:41:00,64.2,59.9,30.22,WNW,288,0.0,1.0,86,0.00,,---,0.00,VWS V14.01,2013-08-26 04:41:00,
2013-08-26 00:46:00,63.9,60.0,30.22,WNW,288,0.0,1.0,87,0.00,,---,0.00,VWS V14.01,2013-08-26 04:46:00,
2013-08-26 00:51:00,63.7,59.8,30.22,WNW,288,0.0,1.0,87,0.00,,---,0.00,VWS V14.01,2013-08-26 04:51:00,
2013-08-26 00:56:00,63.7,60.1,30.22,WNW,288,0.0,1.0,88,0.00,,---,0.00,VWS V14.01,2013-08-26 04:56:00,
2013-08-26 01:00:00,63.7,60.1,30.22,NW,311,0.0,1.0,88,0.00,,---,0.00,VWS V14.01,2013-08-26 05:00:00,
2013-08-26 01:01:00,63.8,60.2,30.22,WNW,288,0.0,0.0,88,0.00,,---,0.00,VWS V14.01,2013-08-26 05:01:00,
2013-08-26 01:06:00,63.9,60.3,30.22,WNW,298,1.0,1.0,88,0.00,,---,0.00,VWS V14.01,2013-08-26 05:06:00,
2013-08-26 01:11:00,63.8,60.5,30.22,WNW,298,0.0,1.0,89,0.00,,---,0.00,VWS V14.01,2013-08-26 05:11:00,
2013-08-26 01:16:00,63.8,60.2,30.22,WNW,299,0.0,1.0,88,0.00,,---,0.00,VWS V14.01,2013-08-26 05:16:00,
2013-08-26 01:21:00,63.8,60.2,30.23,WNW,299,0.0,1.0,88,0.00,,---,0.00,VWS V14.01,2013-08-26 05:21:00,
2013-08-26 01:26:00,63.9,60.3,30.24,WNW,299,0.0,1.0,88,0.00,,---,0.00,VWS V14.01,2013-08-26 05:26:00,
2013-08-26 01:30:00,65.0,60.0,30.22,WNW,287,0.0,1.0,84,0.00,,---,0.00,VWS V14.01,2013-08-26 05:30:00,
2013-08-26 01:31:00,63.9,60.3,30.24,WNW,299,0.0,0.0,88,0.00,,---,0.00,VWS V14.01,2013-08-26 05:31:00,
2013-08-26 01:36:00,63.9,60.3,30.23,West,275,0.0,0.0,88,0.00,,---,0.00,VWS V14.01,2013-08-26 05:36:00,
2013-08-26 01:41:00,63.9,60.3,30.23,West,275,0.0,0.0,88,0.00,,---,0.00,VWS V14.01,2013-08-26 05:41:00,
2013-08-26 01:46:00,64.1,60.2,30.22,ESE,108,0.0,1.0,87,0.00,,---,0.00,VWS V14.01,2013-08-26 05:46:00,
2013-08-26 01:51:00,64.1,60.2,30.22,SW,227,0.0,1.0,87,0.00,,---,0.00,VWS V14.01,2013-08-26 05:51:00,
2013-08-26 01:56:00,64.2,60.3,30.21,SW,227,0.0,1.0,87,0.00,,---,0.00,VWS V14.01,2013-08-26 05:56:00,
2013-08-26 02:00:00,63.8,60.2,30.22,WNW,288,0.0,1.0,88,0.00,,---,0.00,VWS V14.01,2013-08-26 06:00:00,
2013-08-26 02:01:00,64.2,60.3,30.21,SW,227,0.0,0.0,87,0.00,,---,0.00,VWS V14.01,2013-08-26 06:01:00,
2013-08-26 02:06:00,64.2,60.3,30.21,SW,227,0.0,0.0,87,0.00,,---,0.00,VWS V14.01,2013-08-26 06:06:00,
2013-08-26 02:11:00,64.3,60.3,30.21,SW,227,0.0,0.0,87,0.00,,---,0.00,VWS V14.01,2013-08-26 06:11:00,
2013-08-26 02:16:00,64.2,60.3,30.21,SW,227,0.0,0.0,87,0.00,,---,0.00,VWS V14.01,2013-08-26 06:16:00,
2013-08-26 02:21:00,64.1,60.2,30.20,SW,227,0.0,1.0,87,0.00,,---,0.00,VWS V14.01,2013-08-26 06:21:00,
2013-08-26 02:26:00,63.9,60.3,30.19,SW,217,0.0,1.0,88,0.00,,---,0.00,VWS V14.01,2013-08-26 06:26:00,
2013-08-26 02:30:00,63.9,60.3,30.24,WNW,299,0.0,1.0,88,0.00,,---,0.00,VWS V14.01,2013-08-26 06:30:00,
2013-08-26 02:31:00,63.9,60.3,30.19,SW,217,0.0,0.0,88,0.00,,---,0.00,VWS V14.01,2013-08-26 06:31:00,
2013-08-26 02:36:00,63.7,60.1,30.19,SW,223,0.0,1.0,88,0.00,,---,0.00,VWS V14.01,2013-08-26 06:36:00,
2013-08-26 02:41:00,63.2,59.9,30.19,SW,234,0.0,1.0,89,0.00,,---,0.00,VWS V14.01,2013-08-26 06:41:00,
2013-08-26 02:46:00,63.0,59.7,30.19,SW,234,0.0,1.0,89,0.00,,---,0.00,VWS V14.01,2013-08-26 06:46:00,
2013-08-26 02:51:00,62.8,59.5,30.18,WSW,245,0.0,1.0,89,0.00,,---,0.00,VWS V14.01,2013-08-26 06:51:00,
2013-08-26 02:56:00,62.6,59.6,30.18,WSW,245,0.0,1.0,90,0.00,,---,0.00,VWS V14.01,2013-08-26 06:56:00,
2013-08-26 03:00:00,64.2,60.3,30.21,SW,227,0.0,1.0,87,0.00,,---,0.00,VWS V14.01,2013-08-26 07:00:00,
2013-08-26 03:01:00,62.4,59.4,30.18,WSW,245,0.0,0.0,90,0.00,,---,0.00,VWS V14.01,2013-08-26 07:01:00,
2013-08-26 03:06:00,62.1,59.1,30.17,SW,231,0.0,1.0,90,0.00,,---,0.00,VWS V14.01,2013-08-26 07:06:00,
2013-08-26 03:11:00,62.1,59.1,30.17,SW,231,0.0,1.0,90,0.00,,---,0.00,VWS V14.01,2013-08-26 07:11:00,
2013-08-26 03:16:00,62.1,59.1,30.17,SW,233,0.0,1.0,90,0.00,,---,0.00,VWS V14.01,2013-08-26 07:16:00,
2013-08-26 03:21:00,61.7,59.0,30.17,NW,314,0.0,1.0,91,0.00,,---,0.00,VWS V14.01,2013-08-26 07:21:00,
2013-08-26 03:26:00,61.3,59.0,30.17,WNW,300,1.0,1.0,92,0.00,,---,0.00,VWS V14.01,2013-08-26 07:26:00,
2013-08-26 03:30:00,63.9,60.3,30.19,SW,217,0.0,1.0,88,0.00,,---,0.00,VWS V14.01,2013-08-26 07:30:00,
2013-08-26 03:31:00,61.2,58.9,30.18,WNW,283,0.0,1.0,92,0.00,,---,0.00,VWS V14.01,2013-08-26 07:31:00,
2013-08-26 03:36:00,60.9,58.9,30.17,SW,224,0.0,1.0,93,0.00,,---,0.00,VWS V14.01,2013-08-26 07:36:00,
2013-08-26 03:41:00,61.0,59.0,30.18,SW,225,0.0,1.0,93,0.00,,---,0.00,VWS V14.01,2013-08-26 07:41:00,
2013-08-26 03:46:00,61.2,59.2,30.18,WSW,245,0.0,1.0,93,0.00,,---,0.00,VWS V14.01,2013-08-26 07:46:00,
2013-08-26 03:51:00,61.4,59.1,30.17,WSW,245,0.0,1.0,92,0.00,,---,0.00,VWS V14.01,2013-08-26 07:51:00,
2013-08-26 03:56:00,61.8,59.2,30.18,WSW,245,0.0,1.0,91,0.00,,---,0.00,VWS V14.01,2013-08-26 07:56:00,
2013-08-26 04:00:00,62.4,59.4,30.18,WSW,245,0.0,1.0,90,0.00,,---,0.00,VWS V14.01,2013-08-26 08:00:00,
2013-08-26 04:01:00,61.8,59.2,30.17,WSW,245,0.0,0.0,91,0.00,,---,0.00,VWS V14.01,2013-08-26 08:01:00,
2013-08-26 04:06:00,61.7,59.0,30.18,WSW,245,0.0,0.0,91,0.00,,---,0.00,VWS V14.01,2013-08-26 08:06:00,
2013-08-26 04:11:00,61.7,59.0,30.18,WSW,245,0.0,0.0,91,0.00,,---,0.00,VWS V14.01,2013-08-26 08:11:00,
2013-08-26 04:16:00,61.7,59.4,30.18,WSW,245,0.0,0.0,92,0.00,,---,0.00,VWS V14.01,2013-08-26 08:16:00,
2013-08-26 04:21:00,61.9,59.5,30.18,WSW,245,1.0,1.0,92,0.00,,---,0.00,VWS V14.01,2013-08-26 08:21:00,
2013-08-26 04:26:00,61.8,59.5,30.18,NE,47,0.0,2.0,92,0.00,,---,0.00,VWS V14.01,2013-08-26 08:26:00,
2013-08-26 04:30:00,61.2,58.9,30.18,WNW,283,0.0,1.0,92,0.00,,---,0.00,VWS V14.01,2013-08-26 08:30:00,
2013-08-26 04:31:00,61.8,59.5,30.18,SE,140,0.0,0.0,92,0.00,,---,0.00,VWS V14.01,2013-08-26 08:31:00,
2013-08-26 04:36:00,61.9,59.5,30.18,SE,143,0.0,1.0,92,0.00,,---,0.00,VWS V14.01,2013-08-26 08:36:00,
2013-08-26 04:41:00,62.0,59.7,30.18,SE,143,0.0,1.0,92,0.00,,---,0.00,VWS V14.01,2013-08-26 08:41:00,
2013-08-26 04:46:00,62.1,59.8,30.18,SW,217,0.0,1.0,92,0.00,,---,0.00,VWS V14.01,2013-08-26 08:46:00,
2013-08-26 04:51:00,62.2,59.8,30.18,SW,217,0.0,1.0,92,0.00,,---,0.00,VWS V14.01,2013-08-26 08:51:00,
2013-08-26 04:56:00,62.2,59.8,30.18,SW,217,0.0,1.0,92,0.00,,---,0.00,VWS V14.01,2013-08-26 08:56:00,
2013-08-26 05:00:00,61.8,59.2,30.18,WSW,245,0.0,1.0,91,0.00,,---,0.00,VWS V14.01,2013-08-26 09:00:00,
2013-08-26 05:01:00,62.2,59.8,30.18,SW,219,0.0,0.0,92,0.00,,---,0.00,VWS V14.01,2013-08-26 09:01:00,
2013-08-26 05:06:00,62.3,60.0,30.19,SW,219,0.0,0.0,92,0.00,,---,0.00,VWS V14.01,2013-08-26 09:06:00,
2013-08-26 05:11:00,62.4,59.7,30.19,SSW,205,0.0,1.0,91,0.00,,---,0.00,VWS V14.01,2013-08-26 09:11:00,
2013-08-26 05:16:00,62.4,59.7,30.19,SSW,205,0.0,1.0,91,0.00,,---,0.00,VWS V14.01,2013-08-26 09:16:00,
2013-08-26 05:21:00,62.3,59.6,30.19,SSW,205,0.0,1.0,91,0.00,,---,0.00,VWS V14.01,2013-08-26 09:21:00,
2013-08-26 05:26:00,62.3,59.6,30.19,SSW,204,0.0,1.0,91,0.00,,---,0.00,VWS V14.01,2013-08-26 09:26:00,
2013-08-26 05:30:00,61.8,59.5,30.18,SE,139,0.0,2.0,92,0.00,,---,0.00,VWS V14.01,2013-08-26 09:30:00,
2013-08-26 05:31:00,62.4,59.7,30.19,SE,127,0.0,0.0,91,0.00,,---,0.00,VWS V14.01,2013-08-26 09:31:00,
2013-08-26 05:36:00,62.4,59.7,30.19,SE,127,0.0,0.0,91,0.00,,---,0.00,VWS V14.01,2013-08-26 09:36:00,
2013-08-26 05:41:00,62.5,59.8,30.19,SE,127,0.0,1.0,91,0.00,,---,0.00,VWS V14.01,2013-08-26 09:41:00,
2013-08-26 05:46:00,62.4,59.7,30.19,SE,127,0.0,1.0,91,0.00,,---,0.00,VWS V14.01,2013-08-26 09:46:00,
2013-08-26 05:51:00,62.4,59.7,30.19,SE,127,0.0,1.0,91,0.00,,---,0.00,VWS V14.01,2013-08-26 09:51:00,
2013-08-26 05:56:00,62.4,59.7,30.19,SE,127,0.0,1.0,91,0.00,,---,0.00,VWS V14.01,2013-08-26 09:56:00,
2013-08-26 06:00:00,62.2,59.8,30.18,SW,219,0.0,1.0,92,0.00,,---,0.00,VWS V14.01,2013-08-26 10:00:00,
2013-08-26 06:01:00,62.4,59.7,30.19,SE,127,0.0,0.0,91,0.00,,---,0.00,VWS V14.01,2013-08-26 10:01:00,
2013-08-26 06:06:00,62.5,59.8,30.19,SE,127,0.0,0.0,91,0.00,,---,0.00,VWS V14.01,2013-08-26 10:06:00,
2013-08-26 06:11:00,62.5,59.8,30.19,SE,127,0.0,0.0,91,0.00,,---,0.00,VWS V14.01,2013-08-26 10:11:00,
2013-08-26 06:16:00,62.4,59.7,30.19,SE,127,0.0,1.0,91,0.00,,---,0.00,VWS V14.01,2013-08-26 10:16:00,
2013-08-26 06:21:00,62.2,59.8,30.19,SE,127,0.0,1.0,92,0.00,,---,0.00,VWS V14.01,2013-08-26 10:21:00,
2013-08-26 06:26:00,61.9,59.5,30.19,SE,127,0.0,1.0,92,0.00,,---,0.00,VWS V14.01,2013-08-26 10:26:00,
2013-08-26 06:30:00,62.4,59.7,30.19,SE,127,0.0,1.0,91,0.00,,---,0.00,VWS V14.01,2013-08-26 10:30:00,
2013-08-26 06:31:00,61.7,59.7,30.19,SE,127,0.0,0.0,93,0.00,,---,0.00,VWS V14.01,2013-08-26 10:31:00,
2013-08-26 06:36:00,61.7,59.7,30.19,SE,136,0.0,1.0,93,0.00,,---,0.00,VWS V14.01,2013-08-26 10:36:00,
2013-08-26 06:41:00,61.7,59.7,30.19,South,191,0.0,1.0,93,0.00,,---,0.00,VWS V14.01,2013-08-26 10:41:00,
2013-08-26 06:46:00,61.9,59.9,30.19,WSW,246,0.0,1.0,93,0.00,,---,0.00,VWS V14.01,2013-08-26 10:46:00,
2013-08-26 06:51:00,62.1,60.1,30.19,WSW,246,0.0,1.0,93,0.00,,---,0.00,VWS V14.01,2013-08-26 10:51:00,
2013-08-26 06:56:00,62.2,60.2,30.19,WSW,245,0.0,1.0,93,0.00,,---,0.00,VWS V14.01,2013-08-26 10:56:00,
2013-08-26 07:00:00,62.4,59.7,30.19,SE,127,0.0,1.0,91,0.00,,---,0.00,VWS V14.01,2013-08-26 11:00:00,
2013-08-26 07:01:00,62.3,60.0,30.20,WSW,245,0.0,0.0,92,0.00,,---,0.00,VWS V14.01,2013-08-26 11:01:00,
2013-08-26 07:06:00,62.3,60.0,30.19,WSW,246,0.0,0.0,92,0.00,,---,0.00,VWS V14.01,2013-08-26 11:06:00,
2013-08-26 07:11:00,62.3,60.0,30.19,WSW,246,0.0,0.0,92,0.00,,---,0.00,VWS V14.01,2013-08-26 11:11:00,
2013-08-26 07:16:00,62.4,60.3,30.19,WSW,245,0.0,0.0,93,0.00,,---,0.00,VWS V14.01,2013-08-26 11:16:00,
2013-08-26 07:21:00,62.4,60.3,30.19,WSW,246,0.0,0.0,93,0.00,,---,0.00,VWS V14.01,2013-08-26 11:21:00,
2013-08-26 07:26:00,62.4,60.0,30.19,WSW,246,0.0,0.0,92,0.00,,---,0.00,VWS V14.01,2013-08-26 11:26:00,
2013-08-26 07:30:00,61.8,59.8,30.20,SE,127,0.0,1.0,93,0.00,,---,0.00,VWS V14.01,2013-08-26 11:30:00,
2013-08-26 07:31:00,62.5,60.5,30.19,WSW,246,0.0,0.0,93,0.00,,---,0.00,VWS V14.01,2013-08-26 11:31:00,
2013-08-26 07:36:00,62.4,60.3,30.20,WSW,245,0.0,0.0,93,0.00,,---,0.00,VWS V14.01,2013-08-26 11:36:00,
2013-08-26 07:41:00,62.5,60.2,30.20,WSW,246,0.0,1.0,92,0.00,,---,0.00,VWS V14.01,2013-08-26 11:41:00,
2013-08-26 07:46:00,62.6,60.5,30.20,WSW,246,0.0,1.0,93,0.00,,---,0.00,VWS V14.01,2013-08-26 11:46:00,
2013-08-26 07:51:00,62.8,60.8,30.19,WSW,246,0.0,1.0,93,0.00,,---,0.00,VWS V14.01,2013-08-26 11:51:00,
2013-08-26 07:56:00,63.2,60.8,30.19,WSW,245,0.0,1.0,92,0.00,,---,0.00,VWS V14.01,2013-08-26 11:56:00,
2013-08-26 08:00:00,62.3,60.0,30.20,WSW,246,0.0,1.0,92,0.00,,---,0.00,VWS V14.01,2013-08-26 12:00:00,
2013-08-26 08:01:00,63.5,61.1,30.19,WSW,245,0.0,0.0,92,0.00,,---,0.00,VWS V14.01,2013-08-26 12:01:00,
2013-08-26 08:06:00,63.8,61.4,30.19,ESE,106,0.0,1.0,92,0.00,,---,0.00,VWS V14.01,2013-08-26 12:06:00,
2013-08-26 08:11:00,63.9,61.5,30.19,ESE,120,0.0,1.0,92,0.00,,---,0.00,VWS V14.01,2013-08-26 12:11:00,
2013-08-26 08:16:00,64.2,61.5,30.19,ESE,103,0.0,2.0,91,0.00,,---,0.00,VWS V14.01,2013-08-26 12:16:00,
2013-08-26 08:21:00,64.5,61.8,30.19,ESE,107,0.0,2.0,91,0.00,,---,0.00,VWS V14.01,2013-08-26 12:21:00,
2013-08-26 08:26:00,64.8,61.8,30.19,SW,217,0.0,2.0,90,0.00,,---,0.00,VWS V14.01,2013-08-26 12:26:00,
2013-08-26 08:30:00,62.5,60.2,30.19,WSW,246,0.0,0.0,92,0.00,,---,0.00,VWS V14.01,2013-08-26 12:30:00,
2013-08-26 08:31:00,64.9,61.6,30.19,ESE,119,0.0,2.0,89,0.00,,---,0.00,VWS V14.01,2013-08-26 12:31:00,
2013-08-26 08:36:00,65.3,62.0,30.19,SE,127,0.0,2.0,89,0.00,,---,0.00,VWS V14.01,2013-08-26 12:36:00,
2013-08-26 08:41:00,65.7,62.0,30.19,SSE,158,0.0,2.0,88,0.00,,---,0.00,VWS V14.01,2013-08-26 12:41:00,
2013-08-26 08:46:00,66.0,62.0,30.19,SE,141,0.0,2.0,87,0.00,,---,0.00,VWS V14.01,2013-08-26 12:46:00,
2013-08-26 08:51:00,66.8,62.5,30.19,NE,44,0.0,2.0,86,0.00,,---,0.00,VWS V14.01,2013-08-26 12:51:00,
2013-08-26 08:56:00,67.5,62.5,30.18,SSE,167,0.0,2.0,84,0.00,,---,0.00,VWS V14.01,2013-08-26 12:56:00,
2013-08-26 09:00:00,63.4,61.0,30.19,WSW,245,0.0,1.0,92,0.00,,---,0.00,VWS V14.01,2013-08-26 13:00:00,
2013-08-26 09:01:00,67.4,62.1,30.18,ESE,108,1.0,1.0,83,0.00,,---,0.00,VWS V14.01,2013-08-26 13:01:00,
2013-08-26 09:06:00,67.6,62.6,30.18,East,82,0.0,2.0,84,0.00,,---,0.00,VWS V14.01,2013-08-26 13:06:00,
2013-08-26 09:11:00,67.7,62.4,30.18,ESE,121,0.0,2.0,83,0.00,,---,0.00,VWS V14.01,2013-08-26 13:11:00,
2013-08-26 09:15:00,67.7,62.4,30.18,SE,129,0.0,2.0,83,0.00,,---,0.00,VWS V14.01,2013-08-26 13:15:00,
2013-08-26 09:20:00,67.9,62.5,30.18,ESE,103,0.0,2.0,83,0.00,,---,0.00,VWS V14.01,2013-08-26 13:20:00,
2013-08-26 09:25:00,68.3,62.6,30.18,ESE,109,0.0,2.0,82,0.00,,---,0.00,VWS V14.01,2013-08-26 13:25:00,
2013-08-26 09:30:00,68.7,62.6,30.18,East,98,0.0,1.0,81,0.00,,---,0.00,VWS V14.01,2013-08-26 13:30:00,
2013-08-26 09:35:00,69.0,63.3,30.18,ESE,115,0.0,2.0,82,0.00,,---,0.00,VWS V14.01,2013-08-26 13:35:00,
2013-08-26 09:40:00,69.8,63.7,30.18,SSE,149,0.0,2.0,81,0.00,,---,0.00,VWS V14.01,2013-08-26 13:40:00,
2013-08-26 09:45:00,70.5,63.3,30.17,SE,129,3.0,3.0,78,0.00,,---,0.00,VWS V14.01,2013-08-26 13:45:00,
2013-08-26 09:50:00,70.6,63.4,30.17,East,92,0.0,3.0,78,0.00,,---,0.00,VWS V14.01,2013-08-26 13:50:00,
2013-08-26 09:55:00,70.7,63.5,30.17,ESE,117,0.0,3.0,78,0.00,,---,0.00,VWS V14.01,2013-08-26 13:55:00,
2013-08-26 10:00:00,71.0,63.8,30.17,ESE,117,1.0,1.0,78,0.00,,---,0.00,VWS V14.01,2013-08-26 14:00:00,
2013-08-26 10:05:00,71.7,63.7,30.17,SSW,200,0.0,2.0,76,0.00,,---,0.00,VWS V14.01,2013-08-26 14:05:00,
2013-08-26 10:10:00,72.2,63.8,30.17,ESE,120,0.0,2.0,75,0.00,,---,0.00,VWS V14.01,2013-08-26 14:10:00,
2013-08-26 10:15:00,72.6,63.8,30.17,SE,129,0.0,2.0,74,0.00,,---,0.00,VWS V14.01,2013-08-26 14:15:00,
2013-08-26 10:20:00,72.6,63.8,30.17,East,101,0.0,2.0,74,0.00,,---,0.00,VWS V14.01,2013-08-26 14:20:00,
2013-08-26 10:25:00,72.8,64.0,30.16,ESE,121,0.0,2.0,74,0.00,,---,0.00,VWS V14.01,2013-08-26 14:25:00,
2013-08-26 10:30:00,72.9,64.1,30.16,SE,127,0.0,0.0,74,0.00,,---,0.00,VWS V14.01,2013-08-26 14:30:00,
2013-08-26 10:35:00,73.3,63.7,30.16,East,96,0.0,1.0,72,0.00,,---,0.00,VWS V14.01,2013-08-26 14:35:00,
2013-08-26 10:40:00,73.3,63.7,30.15,ESE,104,0.0,2.0,72,0.00,,---,0.00,VWS V14.01,2013-08-26 14:40:00,
2013-08-26 10:45:00,73.4,64.2,30.15,SE,140,0.0,3.0,73,0.00,,---,0.00,VWS V14.01,2013-08-26 14:45:00,
2013-08-26 10:50:00,74.2,63.8,30.15,NW,320,0.0,3.0,70,0.00,,---,0.00,VWS V14.01,2013-08-26 14:50:00,
2013-08-26 10:55:00,74.5,64.1,30.14,NNE,20,1.0,3.0,70,0.00,,---,0.00,VWS V14.01,2013-08-26 14:55:00,
2013-08-26 11:00:00,74.9,64.1,30.14,WNW,299,1.0,1.0,69,0.00,,---,0.00,VWS V14.01,2013-08-26 15:00:00,
2013-08-26 11:05:00,75.4,64.5,30.14,NE,50,0.0,3.0,69,0.00,,---,0.00,VWS V14.01,2013-08-26 15:05:00,
2013-08-26 11:10:00,75.8,65.3,30.14,South,176,0.0,3.0,70,0.00,,---,0.00,VWS V14.01,2013-08-26 15:10:00,
2013-08-26 11:15:00,76.5,63.4,30.14,SE,143,0.0,3.0,64,0.00,,---,0.00,VWS V14.01,2013-08-26 15:15:00,
2013-08-26 11:20:00,77.1,64.0,30.13,WSW,240,1.0,3.0,64,0.00,,---,0.00,VWS V14.01,2013-08-26 15:20:00,
2013-08-26 11:25:00,77.4,63.4,30.14,NW,326,1.0,3.0,62,0.00,,---,0.00,VWS V14.01,2013-08-26 15:25:00,
2013-08-26 11:30:00,77.3,63.7,30.13,NW,323,0.0,0.0,63,0.00,,---,0.00,VWS V14.01,2013-08-26 15:30:00,
2013-08-26 11:35:00,77.7,65.9,30.13,ESE,107,1.0,2.0,67,0.00,,---,0.00,VWS V14.01,2013-08-26 15:35:00,
2013-08-26 11:40:00,77.5,65.3,30.13,NE,46,0.0,2.0,66,0.00,,---,0.00,VWS V14.01,2013-08-26 15:40:00,
2013-08-26 11:45:00,77.3,65.1,30.13,NNE,32,1.0,2.0,66,0.00,,---,0.00,VWS V14.01,2013-08-26 15:45:00,
2013-08-26 11:50:00,76.9,64.2,30.13,NE,41,1.0,3.0,65,0.00,,---,0.00,VWS V14.01,2013-08-26 15:50:00,
2013-08-26 11:55:00,76.9,65.1,30.12,NE,40,0.0,3.0,67,0.00,,---,0.00,VWS V14.01,2013-08-26 15:55:00,
2013-08-26 12:00:00,77.6,65.8,30.12,NW,311,0.0,1.0,67,0.00,,---,0.00,VWS V14.01,2013-08-26 16:00:00,
2013-08-26 12:05:00,77.7,65.0,30.12,NNE,14,0.0,2.0,65,0.00,,---,0.00,VWS V14.01,2013-08-26 16:05:00,
2013-08-26 12:10:00,77.6,65.3,30.12,NE,36,0.0,2.0,66,0.00,,---,0.00,VWS V14.01,2013-08-26 16:10:00,
2013-08-26 12:15:00,77.7,65.4,30.12,North,6,0.0,2.0,66,0.00,,---,0.00,VWS V14.01,2013-08-26 16:15:00,
2013-08-26 12:20:00,77.9,65.2,30.12,ESE,110,0.0,2.0,65,0.00,,---,0.00,VWS V14.01,2013-08-26 16:20:00,
2013-08-26 12:25:00,78.1,64.9,30.11,East,98,0.0,2.0,64,0.00,,---,0.00,VWS V14.01,2013-08-26 16:25:00,
2013-08-26 12:30:00,78.7,65.1,30.11,NNW,329,2.0,4.0,63,0.00,,---,0.00,VWS V14.01,2013-08-26 16:30:00,
2013-08-26 12:35:00,79.1,65.0,30.11,SW,216,0.0,4.0,62,0.00,,---,0.00,VWS V14.01,2013-08-26 16:35:00,
2013-08-26 12:40:00,79.2,63.7,30.10,WNW,299,4.0,4.0,59,0.00,,---,0.00,VWS V14.01,2013-08-26 16:40:00,
2013-08-26 12:45:00,79.0,63.5,30.11,WSW,256,0.0,5.0,59,0.00,,---,0.00,VWS V14.01,2013-08-26 16:45:00,
2013-08-26 12:50:00,78.7,63.7,30.10,WNW,302,0.0,5.0,60,0.00,,---,0.00,VWS V14.01,2013-08-26 16:50:00,
2013-08-26 12:55:00,78.4,63.8,30.10,West,269,0.0,5.0,61,0.00,,---,0.00,VWS V14.01,2013-08-26 16:55:00,
2013-08-26 13:00:00,78.4,64.3,30.09,WSW,238,0.0,0.0,62,0.00,,---,0.00,VWS V14.01,2013-08-26 17:00:00,
2013-08-26 13:05:00,78.9,64.8,30.09,SSW,203,0.0,1.0,62,0.00,,---,0.00,VWS V14.01,2013-08-26 17:05:00,
2013-08-26 13:10:00,79.5,63.9,30.09,WSW,244,0.0,2.0,59,0.00,,---,0.00,VWS V14.01,2013-08-26 17:10:00,
2013-08-26 13:15:00,80.2,63.6,30.08,NW,305,1.0,4.0,57,0.00,,---,0.00,VWS V14.01,2013-08-26 17:15:00,
2013-08-26 13:20:00,80.9,65.2,30.08,SW,217,0.0,6.0,59,0.00,,---,0.00,VWS V14.01,2013-08-26 17:20:00,
2013-08-26 13:25:00,81.7,65.0,30.08,SSW,206,4.0,6.0,57,0.00,,---,0.00,VWS V14.01,2013-08-26 17:25:00,
2013-08-26 13:30:00,82.5,65.8,30.07,West,262,1.0,7.0,57,0.00,,---,0.00,VWS V14.01,2013-08-26 17:30:00,
2013-08-26 13:35:00,82.7,63.8,30.07,West,270,3.0,9.0,53,0.00,,---,0.00,VWS V14.01,2013-08-26 17:35:00,
2013-08-26 13:40:00,82.7,63.3,30.06,WSW,255,1.0,9.0,52,0.00,,---,0.00,VWS V14.01,2013-08-26 17:40:00,
2013-08-26 13:45:00,82.7,63.8,30.06,NW,308,1.0,9.0,53,0.00,,---,0.00,VWS V14.01,2013-08-26 17:45:00,
2013-08-26 13:50:00,83.5,65.1,30.05,NW,317,1.0,9.0,54,0.00,,---,0.00,VWS V14.01,2013-08-26 17:50:00,
2013-08-26 13:55:00,84.4,64.9,30.05,South,185,1.0,9.0,52,0.00,,---,0.00,VWS V14.01,2013-08-26 17:55:00,
2013-08-26 14:00:00,84.7,65.1,30.04,NNW,328,3.0,4.0,52,0.00,,---,0.00,VWS V14.01,2013-08-26 18:00:00,
2013-08-26 14:05:00,84.7,65.7,30.04,WSW,243,0.0,6.0,53,0.00,,---,0.00,VWS V14.01,2013-08-26 18:05:00,
2013-08-26 14:10:00,85.0,64.9,30.04,NW,309,2.0,7.0,51,0.00,,---,0.00,VWS V14.01,2013-08-26 18:10:00,
2013-08-26 14:15:00,84.8,65.2,30.04,SW,214,0.0,7.0,52,0.00,,---,0.00,VWS V14.01,2013-08-26 18:15:00,
2013-08-26 14:20:00,85.5,65.9,30.03,NNW,328,4.0,7.0,52,0.00,,---,0.00,VWS V14.01,2013-08-26 18:20:00,
2013-08-26 14:25:00,85.5,65.9,30.03,SW,219,2.0,8.0,52,0.00,,---,0.00,VWS V14.01,2013-08-26 18:25:00,
2013-08-26 14:30:00,85.9,66.2,30.03,ESE,109,2.0,4.0,52,0.00,,---,0.00,VWS V14.01,2013-08-26 18:30:00,
2013-08-26 14:35:00,86.3,65.5,30.02,NNE,27,2.0,6.0,50,0.00,,---,0.00,VWS V14.01,2013-08-26 18:35:00,
2013-08-26 14:40:00,86.5,65.7,30.02,South,191,2.0,10.0,50,0.00,,---,0.00,VWS V14.01,2013-08-26 18:40:00,
2013-08-26 14:45:00,86.7,65.9,30.02,SW,215,0.0,10.0,50,0.00,,---,0.00,VWS V14.01,2013-08-26 18:45:00,
2013-08-26 14:50:00,87.2,65.1,30.02,WNW,289,3.0,10.0,48,0.00,,---,0.00,VWS V14.01,2013-08-26 18:50:00,
2013-08-26 14:55:00,87.1,65.1,30.02,ESE,119,1.0,10.0,48,0.00,,---,0.00,VWS V14.01,2013-08-26 18:55:00,
2013-08-26 15:00:00,86.7,64.7,30.02,North,350,1.0,1.0,48,0.00,,---,0.00,VWS V14.01,2013-08-26 19:00:00,
2013-08-26 15:05:00,86.8,65.9,30.01,SW,219,2.0,3.0,50,0.00,,---,0.00,VWS V14.01,2013-08-26 19:05:00,
2013-08-26 15:10:00,87.3,65.8,30.01,WSW,246,2.0,4.0,49,0.00,,---,0.00,VWS V14.01,2013-08-26 19:10:00,
2013-08-26 15:15:00,87.1,64.4,30.01,SSW,203,0.0,9.0,47,0.00,,---,0.00,VWS V14.01,2013-08-26 19:15:00,
2013-08-26 15:20:00,87.6,65.5,30.00,WSW,258,1.0,9.0,48,0.00,,---,0.00,VWS V14.01,2013-08-26 19:20:00,
2013-08-26 15:25:00,87.3,65.2,30.00,WSW,245,2.0,9.0,48,0.00,,---,0.00,VWS V14.01,2013-08-26 19:25:00,
2013-08-26 15:30:00,87.0,65.6,30.00,NW,321,2.0,2.0,49,0.00,,---,0.00,VWS V14.01,2013-08-26 19:30:00,
2013-08-26 15:35:00,87.1,65.1,30.00,North,358,2.0,4.0,48,0.00,,---,0.00,VWS V14.01,2013-08-26 19:35:00,
2013-08-26 15:40:00,87.4,65.3,30.00,WNW,301,2.0,4.0,48,0.00,,---,0.00,VWS V14.01,2013-08-26 19:40:00,
2013-08-26 15:45:00,87.3,65.2,30.00,NW,323,3.0,4.0,48,0.00,,---,0.00,VWS V14.01,2013-08-26 19:45:00,
2013-08-26 15:50:00,87.5,65.4,30.00,WSW,250,2.0,5.0,48,0.00,,---,0.00,VWS V14.01,2013-08-26 19:50:00,
2013-08-26 15:55:00,88.0,64.0,29.99,SE,130,4.0,6.0,45,0.00,,---,0.00,VWS V14.01,2013-08-26 19:55:00,
2013-08-26 16:00:00,88.1,63.5,29.99,WNW,283,2.0,2.0,44,0.00,,---,0.00,VWS V14.01,2013-08-26 20:00:00,
2013-08-26 16:05:00,87.9,63.9,29.99,SW,214,0.0,3.0,45,0.00,,---,0.00,VWS V14.01,2013-08-26 20:05:00,
2013-08-26 16:10:00,88.1,64.7,29.98,South,191,6.0,6.0,46,0.00,,---,0.00,VWS V14.01,2013-08-26 20:10:00,
2013-08-26 16:15:00,88.1,64.7,29.98,West,268,0.0,7.0,46,0.00,,---,0.00,VWS V14.01,2013-08-26 20:15:00,
2013-08-26 16:20:00,88.2,64.8,29.98,South,183,1.0,7.0,46,0.00,,---,0.00,VWS V14.01,2013-08-26 20:20:00,
2013-08-26 16:25:00,87.7,64.4,29.98,SW,216,6.0,7.0,46,0.00,,---,0.00,VWS V14.01,2013-08-26 20:25:00,
2013-08-26 16:30:00,87.5,65.4,29.98,NNW,333,5.0,5.0,48,0.00,,---,0.00,VWS V14.01,2013-08-26 20:30:00,
2013-08-26 16:35:00,87.2,65.1,29.97,WSW,242,0.0,6.0,48,0.00,,---,0.00,VWS V14.01,2013-08-26 20:35:00,
2013-08-26 16:40:00,87.1,64.4,29.97,SW,214,0.0,6.0,47,0.00,,---,0.00,VWS V14.01,2013-08-26 20:40:00,
2013-08-26 16:45:00,87.4,64.7,29.97,NW,309,6.0,9.0,47,0.00,,---,0.00,VWS V14.01,2013-08-26 20:45:00,
2013-08-26 16:50:00,87.1,64.4,29.97,West,273,5.0,9.0,47,0.00,,---,0.00,VWS V14.01,2013-08-26 20:50:00,
2013-08-26 16:55:00,86.4,64.4,29.96,NNW,330,1.0,10.0,48,0.00,,---,0.00,VWS V14.01,2013-08-26 20:55:00,
2013-08-26 17:00:00,86.2,64.8,29.96,SSW,199,2.0,6.0,49,0.00,,---,0.00,VWS V14.01,2013-08-26 21:00:00,
2013-08-26 17:05:00,86.5,64.5,29.97,SW,232,0.0,11.0,48,0.00,,---,0.00,VWS V14.01,2013-08-26 21:05:00,
2013-08-26 17:10:00,87.1,65.6,29.97,North,9,1.0,11.0,49,0.00,,---,0.00,VWS V14.01,2013-08-26 21:10:00,
2013-08-26 17:15:00,87.6,65.5,29.96,NW,306,6.0,11.0,48,0.00,,---,0.00,VWS V14.01,2013-08-26 21:15:00,
2013-08-26 17:20:00,87.2,65.1,29.96,SSW,204,0.0,11.0,48,0.00,,---,0.00,VWS V14.01,2013-08-26 21:20:00,
2013-08-26 17:25:00,87.1,65.1,29.96,SW,227,2.0,11.0,48,0.00,,---,0.00,VWS V14.01,2013-08-26 21:25:00,
2013-08-26 17:30:00,86.7,64.7,29.96,WNW,288,3.0,7.0,48,0.00,,---,0.00,VWS V14.01,2013-08-26 21:30:00,
2013-08-26 17:35:00,86.3,64.9,29.96,SW,221,3.0,7.0,49,0.00,,---,0.00,VWS V14.01,2013-08-26 21:35:00,
2013-08-26 17:40:00,85.8,65.0,29.96,SW,218,0.0,7.0,50,0.00,,---,0.00,VWS V14.01,2013-08-26 21:40:00,
2013-08-26 17:45:00,85.7,64.9,29.96,SSW,212,1.0,7.0,50,0.00,,---,0.00,VWS V14.01,2013-08-26 21:45:00,
2013-08-26 17:50:00,85.6,66.0,29.96,NW,307,0.0,7.0,52,0.00,,---,0.00,VWS V14.01,2013-08-26 21:50:00,
2013-08-26 17:55:00,85.6,66.0,29.96,SW,217,2.0,7.0,52,0.00,,---,0.00,VWS V14.01,2013-08-26 21:55:00,
2013-08-26 18:00:00,85.2,65.1,29.96,WSW,238,6.0,6.0,51,0.00,,---,0.00,VWS V14.01,2013-08-26 22:00:00,
2013-08-26 18:05:00,84.9,65.3,29.96,SW,235,1.0,6.0,52,0.00,,---,0.00,VWS V14.01,2013-08-26 22:05:00,
2013-08-26 18:10:00,84.8,65.2,29.95,SSW,212,1.0,6.0,52,0.00,,---,0.00,VWS V14.01,2013-08-26 22:10:00,
2013-08-26 18:15:00,85.0,66.0,29.95,WNW,290,0.0,6.0,53,0.00,,---,0.00,VWS V14.01,2013-08-26 22:15:00,
2013-08-26 18:20:00,85.6,66.5,29.95,West,270,0.0,6.0,53,0.00,,---,0.00,VWS V14.01,2013-08-26 22:20:00,
2013-08-26 18:25:00,86.0,66.3,29.95,SW,231,0.0,6.0,52,0.00,,---,0.00,VWS V14.01,2013-08-26 22:25:00,
2013-08-26 18:30:00,85.6,66.5,29.95,West,261,0.0,0.0,53,0.00,,---,0.00,VWS V14.01,2013-08-26 22:30:00,
2013-08-26 18:35:00,85.2,66.2,29.95,WSW,239,1.0,1.0,53,0.00,,---,0.00,VWS V14.01,2013-08-26 22:35:00,
2013-08-26 18:40:00,84.7,66.2,29.95,WSW,257,0.0,2.0,54,0.00,,---,0.00,VWS V14.01,2013-08-26 22:40:00,
2013-08-26 18:45:00,84.4,66.5,29.95,SW,216,0.0,2.0,55,0.00,,---,0.00,VWS V14.01,2013-08-26 22:45:00,
2013-08-26 18:50:00,83.9,64.9,29.95,South,174,0.0,2.0,53,0.00,,---,0.00,VWS V14.01,2013-08-26 22:50:00,
2013-08-26 18:55:00,83.6,64.7,29.95,WNW,297,3.0,3.0,53,0.00,,---,0.00,VWS V14.01,2013-08-26 22:55:00,
2013-08-26 19:00:00,83.2,64.3,29.96,SW,214,2.0,2.0,53,0.00,,---,0.00,VWS V14.01,2013-08-26 23:00:00,
2013-08-26 19:05:00,82.9,63.5,29.96,West,263,0.0,3.0,52,0.00,,---,0.00,VWS V14.01,2013-08-26 23:05:00,
2013-08-26 19:10:00,82.6,63.8,29.96,SW,225,0.0,3.0,53,0.00,,---,0.00,VWS V14.01,2013-08-26 23:10:00,
2013-08-26 19:15:00,82.3,64.0,29.96,SW,224,0.0,3.0,54,0.00,,---,0.00,VWS V14.01,2013-08-26 23:15:00,
2013-08-26 19:20:00,82.1,63.8,29.96,SW,229,1.0,3.0,54,0.00,,---,0.00,VWS V14.01,2013-08-26 23:20:00,
2013-08-26 19:25:00,81.9,63.6,29.96,WSW,240,0.0,3.0,54,0.00,,---,0.00,VWS V14.01,2013-08-26 23:25:00,
2013-08-26 19:30:00,81.9,63.6,29.96,SSW,212,0.0,0.0,54,0.00,,---,0.00,VWS V14.01,2013-08-26 23:30:00,
2013-08-26 19:35:00,81.7,63.5,29.96,SW,221,0.0,2.0,54,0.00,,---,0.00,VWS V14.01,2013-08-26 23:35:00,
2013-08-26 19:40:00,81.6,63.4,29.95,WSW,255,3.0,3.0,54,0.00,,---,0.00,VWS V14.01,2013-08-26 23:40:00,
2013-08-26 19:45:00,81.5,63.3,29.95,SW,215,0.0,3.0,54,0.00,,---,0.00,VWS V14.01,2013-08-26 23:45:00,
2013-08-26 19:50:00,81.3,63.6,29.96,SW,233,0.0,3.0,55,0.00,,---,0.00,VWS V14.01,2013-08-26 23:50:00,
2013-08-26 19:55:00,81.2,63.5,29.95,SW,219,0.0,3.0,55,0.00,,---,0.00,VWS V14.01,2013-08-26 23:55:00,
2013-08-26 20:00:00,81.1,63.4,29.95,SSW,208,1.0,1.0,55,0.00,,---,0.00,VWS V14.01,2013-08-27 00:00:00,
2013-08-26 20:05:00,81.1,63.4,29.95,South,183,1.0,3.0,55,0.00,,---,0.00,VWS V14.01,2013-08-27 00:05:00,
2013-08-26 20:10:00,81.1,63.4,29.95,SW,226,0.0,6.0,55,0.00,,---,0.00,VWS V14.01,2013-08-27 00:10:00,
2013-08-26 20:15:00,81.1,63.4,29.95,SW,224,0.0,6.0,55,0.00,,---,0.00,VWS V14.01,2013-08-27 00:15:00,
2013-08-26 20:20:00,81.0,64.8,29.95,South,189,0.0,6.0,58,0.00,,---,0.00,VWS V14.01,2013-08-27 00:20:00,
2013-08-26 20:25:00,79.9,65.3,29.96,SW,220,1.0,6.0,61,0.00,,---,0.00,VWS V14.01,2013-08-27 00:25:00,
2013-08-26 20:30:00,79.4,65.3,29.96,SSW,210,1.0,1.0,62,0.00,,---,0.00,VWS V14.01,2013-08-27 00:30:00,
2013-08-26 20:35:00,79.3,65.2,29.96,SW,216,0.0,3.0,62,0.00,,---,0.00,VWS V14.01,2013-08-27 00:35:00,
2013-08-26 20:40:00,79.2,65.1,29.96,SSW,207,0.0,3.0,62,0.00,,---,0.00,VWS V14.01,2013-08-27 00:40:00,
2013-08-26 20:45:00,79.0,64.9,29.96,SW,231,0.0,3.0,62,0.00,,---,0.00,VWS V14.01,2013-08-27 00:45:00,
2013-08-26 20:50:00,78.7,65.1,29.96,SW,235,0.0,3.0,63,0.00,,---,0.00,VWS V14.01,2013-08-27 00:50:00,
2013-08-26 20:55:00,78.4,65.7,29.97,WSW,243,0.0,3.0,65,0.00,,---,0.00,VWS V14.01,2013-08-27 00:55:00,
2013-08-26 21:00:00,78.1,65.8,29.97,SW,222,0.0,0.0,66,0.00,,---,0.00,VWS V14.01,2013-08-27 01:00:00,
2013-08-26 21:05:00,77.9,65.2,29.96,SSE,161,0.0,3.0,65,0.00,,---,0.00,VWS V14.01,2013-08-27 01:05:00,
2013-08-26 21:10:00,77.7,65.4,29.97,SW,232,0.0,3.0,66,0.00,,---,0.00,VWS V14.01,2013-08-27 01:10:00,
2013-08-26 21:15:00,77.4,66.0,29.97,SSW,213,0.0,3.0,68,0.00,,---,0.00,VWS V14.01,2013-08-27 01:15:00,
2013-08-26 21:20:00,76.9,66.4,29.98,SSW,207,1.0,3.0,70,0.00,,---,0.00,VWS V14.01,2013-08-27 01:20:00,
2013-08-26 21:25:00,76.2,66.5,29.98,NW,314,0.0,6.0,72,0.01,,---,0.01,VWS V14.01,2013-08-27 01:25:00,
2013-08-26 21:30:00,75.6,66.7,29.98,SSW,207,2.0,2.0,74,0.01,,---,0.01,VWS V14.01,2013-08-27 01:30:00,
2013-08-26 21:35:00,75.0,66.9,29.98,South,185,1.0,3.0,76,0.01,,---,0.01,VWS V14.01,2013-08-27 01:35:00,
2013-08-26 21:40:00,74.4,67.1,29.98,SSW,213,0.0,3.0,78,0.01,,---,0.01,VWS V14.01,2013-08-27 01:40:00,
2013-08-26 21:45:00,73.9,67.3,29.97,SSW,213,0.0,3.0,80,0.01,,---,0.01,VWS V14.01,2013-08-27 01:45:00,
2013-08-26 21:50:00,73.5,67.3,29.97,SW,220,0.0,3.0,81,0.01,,---,0.01,VWS V14.01,2013-08-27 01:50:00,
2013-08-26 21:55:00,73.5,67.3,29.97,South,188,0.0,3.0,81,0.01,,---,0.01,VWS V14.01,2013-08-27 01:55:00,
2013-08-26 22:00:00,73.4,67.2,29.97,SSW,198,0.0,4.0,81,0.01,,---,0.01,VWS V14.01,2013-08-27 02:00:00,
2013-08-26 22:05:00,73.3,66.8,29.97,NNW,327,1.0,2.0,80,0.01,,---,0.01,VWS V14.01,2013-08-27 02:05:00,
2013-08-26 22:10:00,73.3,66.8,29.97,NNW,327,4.0,4.0,80,0.01,,---,0.01,VWS V14.01,2013-08-27 02:10:00,
2013-08-26 22:15:00,73.3,66.8,29.96,WNW,300,0.0,4.0,80,0.01,,---,0.01,VWS V14.01,2013-08-27 02:15:00,
2013-08-26 22:20:00,73.2,67.0,29.96,WNW,296,0.0,4.0,81,0.02,,---,0.02,VWS V14.01,2013-08-27 02:20:00,
2013-08-26 22:25:00,73.1,66.9,29.96,WNW,296,0.0,4.0,81,0.02,,---,0.02,VWS V14.01,2013-08-27 02:25:00,
2013-08-26 22:30:00,72.9,67.4,29.96,NW,311,0.0,4.0,83,0.02,,---,0.02,VWS V14.01,2013-08-27 02:30:00,
2013-08-26 22:35:00,72.6,67.2,29.96,NW,311,0.0,0.0,83,0.01,,---,0.02,VWS V14.01,2013-08-27 02:35:00,
2013-08-26 22:40:00,72.4,67.6,29.96,SW,233,0.0,1.0,85,0.01,,---,0.02,VWS V14.01,2013-08-27 02:40:00,
2013-08-26 22:45:00,72.0,67.2,29.96,WSW,238,0.0,1.0,85,0.01,,---,0.02,VWS V14.01,2013-08-27 02:45:00,
2013-08-26 22:50:00,72.0,66.9,29.96,WSW,238,0.0,1.0,84,0.01,,---,0.02,VWS V14.01,2013-08-27 02:50:00,
2013-08-26 22:55:00,72.1,67.3,29.96,NE,39,0.0,1.0,85,0.01,,---,0.02,VWS V14.01,2013-08-27 02:55:00,
2013-08-26 23:00:00,72.0,67.2,29.96,NE,39,0.0,1.0,85,0.01,,---,0.02,VWS V14.01,2013-08-27 03:00:00,
2013-08-26 23:05:00,72.4,67.6,29.96,SW,225,0.0,4.0,85,0.01,,---,0.02,VWS V14.01,2013-08-27 03:05:00,
2013-08-26 23:10:00,72.2,67.8,29.95,SW,214,1.0,4.0,86,0.01,,---,0.02,VWS V14.01,2013-08-27 03:10:00,
2013-08-26 23:15:00,71.9,67.5,29.95,SSW,210,0.0,4.0,86,0.01,,---,0.02,VWS V14.01,2013-08-27 03:15:00,
2013-08-26 23:20:00,72.2,67.1,29.95,SW,226,2.0,4.0,84,0.01,,---,0.02,VWS V14.01,2013-08-27 03:20:00,
2013-08-26 23:25:00,72.7,66.5,29.95,SW,234,2.0,4.0,81,0.01,,---,0.02,VWS V14.01,2013-08-27 03:25:00,
2013-08-26 23:30:00,73.3,66.8,29.95,NNW,327,0.0,5.0,80,0.01,,---,0.02,VWS V14.01,2013-08-27 03:30:00,
2013-08-26 23:35:00,73.5,67.0,29.95,NW,309,0.0,2.0,80,0.00,,---,0.02,VWS V14.01,2013-08-27 03:35:00,
2013-08-26 23:40:00,73.3,66.4,29.95,South,186,0.0,2.0,79,0.00,,---,0.02,VWS V14.01,2013-08-27 03:40:00,
2013-08-26 23:45:00,73.2,67.0,29.95,West,261,0.0,2.0,81,0.00,,---,0.02,VWS V14.01,2013-08-27 03:45:00,
2013-08-26 23:50:00,73.1,66.9,29.95,West,280,0.0,5.0,81,0.00,,---,0.02,VWS V14.01,2013-08-27 03:50:00,
2013-08-26 23:55:00,72.9,67.1,29.94,WSW,257,1.0,5.0,82,0.00,,---,0.02,VWS V14.01,2013-08-27 03:55:00,